Location: Tel Aviv
(32.0670°N, 34.7670°E)
Time: 11:50:00
(UTC+03:00)

Transit 2A - Pass Details

Date: 25 January 2022
Orbit: 598 x 960 km, 66.7° (Epoch: 20 May)

Event Time Altitude Azimuth Distance (km) Brightness Sun altitude
Rises 20:19:12 0° 334° (NNW) 3,533 9.7 -40.4°
Enters shadow 20:21:17 - 335° (NNW) 2,747 9.1 -40.8°
Reaches altitude 10° 20:21:49 10° 335° (NNW) 2,544 - -41.0°
Maximum altitude 20:27:43 86° 64° (ENE) 828 - -42.2°
Drops below altitude 10° 20:33:01 10° 154° (SSE) 2,288 - -43.3°
Sets 20:35:16 0° 155° (SSE) 3,153 - -43.8°
